Location: *
(50.3440°N, 18.6237°E)
Time: 18:10:15
(UTC+00:00)

H-2A R/B - Pass Details

Date: 30 November 2020
Orbit: 578 x 654 km, 98.5° (Epoch: 23 January)

Event Time Altitude Azimuth Distance (km) Brightness Sun altitude
Exits shadow 15:58:31 - 16° (NNE) 2,623 4.9 -11.1°
Reaches altitude 10° 16:00:09 10° 18° (NNE) 1,943 4.2 -11.4°
Maximum altitude 16:04:22 74° 104° (ESE) 635 1.9 -12.0°
Drops below altitude 10° 16:08:39 10° 190° (S) 1,972 5.0 -12.7°
Sets 16:10:51 0° 192° (SSW) 2,885 5.9 -13.0°
